TimeEDT,TemperatureF,Dew PointF,Humidity,Sea Level PressureIn,VisibilityMPH,Wind Direction,Wind SpeedMPH,Gust SpeedMPH,PrecipitationIn,Events,Conditions,WindDirDegrees,DateUTC
12:02 AM,44.6,39.2,81,30.24,10.0,East,5.8,-,N/A,,Clear,90,2013-10-15 04:02:00
1:19 AM,44.6,41.0,87,30.23,10.0,ESE,6.9,-,N/A,,Clear,110,2013-10-15 05:19:00
1:42 AM,46.4,41.0,81,30.22,10.0,ESE,8.1,-,N/A,,Clear,110,2013-10-15 05:42:00
2:00 AM,46.4,41.0,81,30.21,10.0,East,6.9,-,N/A,,Clear,100,2013-10-15 06:00:00
2:22 AM,46.4,41.0,81,30.20,10.0,East,8.1,-,N/A,,Clear,100,2013-10-15 06:22:00
2:39 AM,44.6,41.0,87,30.19,10.0,East,6.9,-,N/A,,Clear,100,2013-10-15 06:39:00
3:18 AM,44.6,42.8,93,30.18,10.0,ESE,8.1,-,N/A,,Clear,110,2013-10-15 07:18:00
3:38 AM,44.6,42.8,93,30.17,10.0,East,5.8,-,N/A,,Clear,100,2013-10-15 07:38:00
3:58 AM,44.6,42.8,93,30.17,10.0,East,4.6,-,N/A,,Clear,100,2013-10-15 07:58:00
4:18 AM,44.6,42.8,93,30.17,10.0,East,4.6,-,N/A,,Clear,100,2013-10-15 08:18:00
4:38 AM,44.6,42.8,93,30.15,10.0,East,5.8,-,N/A,,Clear,100,2013-10-15 08:38:00
4:58 AM,44.6,42.8,93,30.14,10.0,East,5.8,-,N/A,,Clear,100,2013-10-15 08:58:00
5:18 AM,44.6,42.8,93,30.14,10.0,East,4.6,-,N/A,,Clear,100,2013-10-15 09:18:00
5:58 AM,44.6,42.8,93,30.13,10.0,East,4.6,-,N/A,,Clear,100,2013-10-15 09:58:00
6:18 AM,44.6,42.8,93,30.12,10.0,East,4.6,-,N/A,,Clear,100,2013-10-15 10:18:00
6:39 AM,44.6,42.8,93,30.10,10.0,East,5.8,-,N/A,,Clear,90,2013-10-15 10:39:00
7:01 AM,44.6,42.8,93,30.09,10.0,East,4.6,-,N/A,,Clear,100,2013-10-15 11:01:00
7:18 AM,44.6,42.8,93,30.10,10.0,East,4.6,-,N/A,,Clear,100,2013-10-15 11:18:00
7:38 AM,44.6,42.8,93,30.09,10.0,East,5.8,-,N/A,,Clear,90,2013-10-15 11:38:00
7:57 AM,44.6,42.8,93,30.09,10.0,East,3.5,-,N/A,,Clear,90,2013-10-15 11:57:00
8:17 AM,44.6,42.8,93,30.09,10.0,East,4.6,-,N/A,,Clear,100,2013-10-15 12:17:00
8:38 AM,44.6,44.6,100,30.09,10.0,East,4.6,-,N/A,,Clear,90,2013-10-15 12:38:00
9:03 AM,44.6,44.6,100,30.08,10.0,East,5.8,-,N/A,,Clear,100,2013-10-15 13:03:00
9:25 AM,46.4,44.6,93,30.07,10.0,ESE,6.9,-,N/A,,Clear,110,2013-10-15 13:25:00
9:38 AM,46.4,44.6,93,30.06,10.0,East,8.1,-,N/A,,Clear,100,2013-10-15 13:38:00
10:23 AM,51.8,46.4,82,30.03,10.0,ESE,9.2,-,N/A,,Clear,120,2013-10-15 14:23:00
10:39 AM,51.8,46.4,82,30.03,10.0,ESE,10.4,-,N/A,,Clear,120,2013-10-15 14:39:00
10:58 AM,53.6,46.4,77,30.01,10.0,SE,9.2,-,N/A,,Clear,130,2013-10-15 14:58:00
11:38 AM,55.4,48.2,77,29.98,10.0,ESE,8.1,-,N/A,,Clear,120,2013-10-15 15:38:00
11:57 AM,55.4,48.2,77,29.98,10.0,SE,5.8,-,N/A,,Clear,140,2013-10-15 15:57:00
12:17 PM,57.2,48.2,72,29.97,10.0,SE,9.2,-,N/A,,Clear,130,2013-10-15 16:17:00
12:38 PM,57.2,50.0,77,29.96,10.0,SE,6.9,-,N/A,,Clear,130,2013-10-15 16:38:00
1:04 PM,59.0,50.0,72,29.95,10.0,ESE,10.4,-,N/A,,Scattered Clouds,120,2013-10-15 17:04:00
1:17 PM,59.0,51.8,77,29.94,10.0,SE,9.2,-,N/A,,Scattered Clouds,130,2013-10-15 17:17:00
1:36 PM,60.8,51.8,72,29.92,10.0,SE,8.1,-,N/A,,Mostly Cloudy,130,2013-10-15 17:36:00
1:56 PM,60.8,51.8,72,29.91,10.0,SE,10.4,-,N/A,,Mostly Cloudy,140,2013-10-15 17:56:00
2:16 PM,60.8,53.6,77,29.88,10.0,ESE,13.8,-,N/A,,Mostly Cloudy,120,2013-10-15 18:16:00
2:44 PM,62.6,53.6,72,29.87,10.0,SE,10.4,-,N/A,,Overcast,130,2013-10-15 18:44:00
2:56 PM,62.6,53.6,72,29.86,10.0,SE,8.1,-,N/A,,Overcast,130,2013-10-15 18:56:00
3:16 PM,64.4,53.6,68,29.84,10.0,ESE,11.5,16.1,N/A,,Overcast,120,2013-10-15 19:16:00
3:37 PM,62.6,53.6,72,29.83,10.0,SSE,11.5,16.1,N/A,,Overcast,150,2013-10-15 19:37:00
3:57 PM,60.8,55.4,82,29.83,10.0,SSE,5.8,-,N/A,,Overcast,150,2013-10-15 19:57:00
4:16 PM,60.8,55.4,82,29.83,7.0,South,6.9,-,N/A,Rain,Light Rain,190,2013-10-15 20:16:00
4:57 PM,59.0,57.2,94,29.81,4.0,SE,3.5,-,N/A,Rain,Rain,140,2013-10-15 20:57:00
5:30 PM,57.2,57.2,100,29.80,3.0,SE,4.6,-,N/A,Rain,Rain,140,2013-10-15 21:30:00
5:37 PM,57.2,57.2,100,29.80,2.5,SE,8.1,-,N/A,Rain,Rain,140,2013-10-15 21:37:00
5:57 PM,57.2,57.2,100,29.80,3.0,South,5.8,-,N/A,Rain,Rain,170,2013-10-15 21:57:00
6:17 PM,57.2,57.2,100,29.79,3.0,SE,5.8,-,N/A,Rain,Rain,140,2013-10-15 22:17:00
6:37 PM,57.2,57.2,100,29.79,3.0,SSE,5.8,-,N/A,Rain,Rain,160,2013-10-15 22:37:00
6:57 PM,57.2,57.2,100,29.78,4.0,South,8.1,-,N/A,,Drizzle,180,2013-10-15 22:57:00
7:17 PM,59.0,59.0,100,29.78,3.0,South,6.9,-,N/A,Rain,Heavy Rain,190,2013-10-15 23:17:00
7:37 PM,59.0,59.0,100,29.78,5.0,South,5.8,-,N/A,,Drizzle,180,2013-10-15 23:37:00
7:57 PM,59.0,59.0,100,29.78,5.0,South,5.8,-,N/A,Rain,Light Rain,170,2013-10-15 23:57:00
8:17 PM,59.0,59.0,100,29.78,5.0,South,5.8,-,N/A,,Light Drizzle,190,2013-10-16 00:17:00
8:42 PM,59.0,59.0,100,29.77,4.0,South,4.6,-,N/A,,Overcast,180,2013-10-16 00:42:00
9:02 PM,59.0,59.0,100,29.78,5.0,SW,4.6,-,N/A,,Overcast,220,2013-10-16 01:02:00
9:22 PM,60.8,60.8,100,29.78,7.0,SW,6.9,-,N/A,,Overcast,230,2013-10-16 01:22:00
9:52 PM,60.8,60.8,100,29.78,7.0,SSW,6.9,-,N/A,,Overcast,210,2013-10-16 01:52:00
10:05 PM,60.8,60.8,100,29.77,7.0,SSW,6.9,-,N/A,,Overcast,210,2013-10-16 02:05:00
10:17 PM,60.8,60.8,100,29.77,7.0,SSW,8.1,-,N/A,,Overcast,210,2013-10-16 02:17:00
10:37 PM,60.8,60.8,100,29.77,5.0,SW,8.1,-,N/A,,Overcast,220,2013-10-16 02:37:00
11:03 PM,60.8,60.8,100,29.75,4.0,South,6.9,-,N/A,,Overcast,190,2013-10-16 03:03:00
11:37 PM,59.0,59.0,100,29.77,10.0,WSW,9.2,-,N/A,,Overcast,240,2013-10-16 03:37:00
11:57 PM,59.0,57.2,94,29.78,10.0,West,11.5,21.9,N/A,,Overcast,260,2013-10-16 03:57:00